QPF
0.03 0.03 0.02 0.00 0.00 0.00 0.00 0.00 0.00 0.00 0.00 0.00 0.00 0.00 0.00 0.00 0.00 0.00 0.00 0.00 0.00 0.00 0.00 0.00 0.00 0.00 0.00 0.00 0.00 0.00 0.00 0.00 0.00 0.00 0.00 0.00 0.00 0.00 0.00 0.00 0.00 0.00 0.00 0.00 0.00 0.00 0.00 0.00 0.00 0.00 0.00 0.00 0.00 0.01
0.03 0.02 0.01 0.00 0.00 0.00 0.00 0.00 0.00 0.00 0.00 0.00 0.00 0.00 0.00 0.00 0.00 0.00 0.00 0.00 0.00 0.00 0.00 0.00 0.00 0.00 0.00 0.00 0.00 0.00 0.00 0.00 0.00 0.00 0.00 0.00 0.00 0.00 0.00 0.00 0.00 0.00 0.00 0.00 0.00 0.00 0.00 0.00 0.00 0.00 0.00 0.00 0.00 0.01
0.04 0.02 0.01 0.00 0.00 0.00 0.00 0.00 0.00 0.00 0.00 0.00 0.00 0.00 0.00 0.00 0.00 0.00 0.00 0.00 0.00 0.00 0.00 0.00 0.00 0.00 0.00 0.00 0.00 0.00 0.00 0.00 0.00 0.00 0.00 0.00 0.00 0.00 0.00 0.00 0.00 0.00 0.00 0.00 0.00 0.00 0.00 0.00 0.00 0.00 0.00 0.00 0.00 0.00
0.03 0.02 0.01 0.00 0.00 0.00 0.00 0.00 0.00 0.00 0.00 0.00 0.00 0.00 0.00 0.00 0.00 0.00 0.00 0.00 0.00 0.00 0.00 0.00 0.00 0.00 0.00 0.00 0.00 0.00 0.00 0.00 0.00 0.00 0.00 0.00 0.00 0.00 0.00 0.00 0.00 0.00 0.00 0.00 0.00 0.00 0.01 0.00 0.00 0.00 0.00 0.00 0.00 0.00
0.02 0.01 0.00 0.00 0.00 0.00 0.00 0.00 0.00 0.00 0.00 0.00 0.00 0.00 0.00 0.00 0.00 0.00 0.00 0.00 0.00 0.00 0.00 0.00 0.00 0.00 0.00 0.00 0.00 0.00 0.00 0.00 0.00 0.00 0.00 0.00 0.00 0.00 0.00 0.00 0.00 0.00 0.00 0.00 0.00 0.00 0.01 0.00 0.00 0.00 0.00 0.00 0.00 0.00
0.01 0.01 0.00 0.00 0.00 0.00 0.00 0.00 0.00 0.00 0.00 0.00 0.00 0.00 0.00 0.00 0.00 0.00 0.00 0.00 0.00 0.00 0.00 0.00 0.00 0.00 0.00 0.00 0.00 0.00 0.00 0.00 0.00 0.00 0.00 0.00 0.00 0.00 0.00 0.00 0.00 0.00 0.00 0.00 0.00 0.00 0.00 0.00 0.00 0.00 0.00 0.00 0.00 0.00
0.00 0.00 0.00 0.00 0.00 0.00 0.00 0.00 0.00 0.00 0.00 0.00 0.00 0.00 0.00 0.00 0.00 0.00 0.00 0.00 0.00 0.00 0.00 0.00 0.00 0.00 0.00 0.00 0.00 0.00 0.00 0.00 0.00 0.00 0.00 0.00 0.00 0.00 0.00 0.00 0.00 0.00 0.00 0.00 0.00 0.00 0.00 0.00 0.00 0.00 0.00 0.00 0.00 0.00
0.00 0.00 0.00 0.00 0.00 0.00 0.00 0.00 0.00 0.00 0.00 0.00 0.00 0.00 0.00 0.00 0.00 0.00 0.00 0.00 0.00 0.00 0.00 0.00 0.00 0.00 0.00 0.00 0.00 0.00 0.00 0.00 0.00 0.00 0.00 0.00 0.00 0.00 0.00 0.00 0.00 0.00 0.00 0.00 0.00 0.00 0.00 0.00 0.00 0.00 0.00 0.00 0.00 0.00
0.00 0.00 0.00 0.00 0.00 0.00 0.00 0.00 0.00 0.00 0.00 0.00 0.00 0.00 0.00 0.00 0.00 0.00 0.00 0.00 0.00 0.00 0.00 0.00 0.00 0.00 0.00 0.00 0.00 0.00 0.00 0.00 0.00 0.00 0.00 0.00 0.00 0.00 0.00 0.00 0.00 0.00 0.00 0.00 0.00 0.00 0.00 0.00 0.00 0.00 0.00 0.00 0.00 0.00
0.00 0.00 0.00 0.00 0.00 0.00 0.00 0.00 0.00 0.00 0.00 0.00 0.00 0.01 0.00 0.00 0.00 0.00 0.00 0.00 0.00 0.00 0.00 0.00 0.00 0.00 0.00 0.00 0.00 0.00 0.00 0.00 0.00 0.00 0.00 0.00 0.00 0.00 0.00 0.00 0.00 0.00 0.00 0.00 0.00 0.00 0.00 0.00 0.00 0.00 0.00 0.00 0.00 0.00
0.00 0.00 0.00 0.00 0.00 0.00 0.00 0.00 0.00 0.01 0.00 0.01 0.00 0.00 0.00 0.00 0.00 0.00 0.00 0.00 0.00 0.00 0.00 0.00 0.00 0.00 0.00 0.00 0.00 0.00 0.00 0.00 0.00 0.00 0.00 0.00 0.00 0.00 0.00 0.00 0.00 0.00 0.00 0.00 0.00 0.00 0.00 0.00 0.00 0.00 0.00 0.00 0.00 0.00
0.00 0.00 0.00 0.00 0.00 0.00 0.00 0.00 0.01 0.01 0.00 0.00 0.00 0.00 0.00 0.00 0.00 0.00 0.00 0.00 0.00 0.00 0.00 0.00 0.00 0.00 0.00 0.00 0.00 0.00 0.00 0.00 0.00 0.00 0.00 0.00 0.00 0.00 0.00 0.00 0.00 0.00 0.00 0.00 0.00 0.00 0.00 0.00 0.00 0.00 0.00 0.00 0.00 0.00
0.00 0.00 0.00 0.00 0.01 0.01 0.01 0.01 0.01 0.00 0.00 0.00 0.00 0.00 0.00 0.00 0.00 0.00 0.00 0.00 0.00 0.00 0.00 0.00 0.00 0.00 0.00 0.00 0.00 0.00 0.00 0.00 0.00 0.00 0.00 0.00 0.00 0.00 0.00 0.00 0.00 0.00 0.00 0.00 0.00 0.00 0.00 0.00 0.00 0.00 0.00 0.00 0.00 0.00
0.00 0.00 0.00 0.01 0.01 0.01 0.00 0.00 0.00 0.00 0.00 0.00 0.00 0.00 0.00 0.00 0.00 0.00 0.00 0.00 0.00 0.00 0.00 0.00 0.00 0.00 0.00 0.00 0.00 0.00 0.00 0.00 0.00 0.00 0.00 0.00 0.00 0.00 0.00 0.00 0.00 0.00 0.00 0.00 0.00 0.00 0.00 0.00 0.00 0.00 0.00 0.00 0.00 0.00
0.00 0.00 0.01 0.01 0.00 0.00 0.00 0.00 0.00 0.00 0.00 0.00 0.00 0.00 0.00 0.00 0.00 0.00 0.00 0.00 0.00 0.00 0.00 0.00 0.00 0.00 0.00 0.00 0.00 0.00 0.00 0.00 0.00 0.00 0.00 0.00 0.00 0.00 0.00 0.00 0.00 0.00 0.00 0.00 0.00 0.00 0.00 0.00 0.00 0.00 0.00 0.00 0.00 0.00
0.01 0.01 0.01 0.00 0.00 0.00 0.00 0.00 0.00 0.01 0.00 0.00 0.00 0.00 0.00 0.00 0.00 0.00 0.00 0.00 0.00 0.00 0.00 0.00 0.00 0.00 0.00 0.00 0.00 0.00 0.00 0.00 0.00 0.00 0.00 0.00 0.00 0.00 0.00 0.00 0.00 0.00 0.00 0.00 0.00 0.00 0.00 0.00 0.00 0.00 0.00 0.00 0.00 0.00
0.01 0.01 0.00 0.00 0.00 0.00 0.00 0.01 0.00 0.00 0.00 0.00 0.00 0.00 0.00 0.00 0.00 0.00 0.00 0.00 0.00 0.00 0.00 0.00 0.00 0.00 0.00 0.00 0.00 0.00 0.00 0.00 0.00 0.00 0.00 0.00 0.00 0.00 0.00 0.00 0.00 0.00 0.00 0.00 0.00 0.00 0.00 0.00 0.00 0.00 0.00 0.00 0.00 0.00
0.01 0.00 0.00 0.00 0.00 0.00 0.00 0.00 0.00 0.00 0.00 0.00 0.00 0.00 0.00 0.00 0.00 0.00 0.00 0.00 0.00 0.00 0.00 0.00 0.00 0.00 0.00 0.00 0.00 0.00 0.00 0.00 0.00 0.00 0.00 0.00 0.00 0.00 0.00 0.00 0.00 0.00 0.00 0.00 0.00 0.00 0.00 0.00 0.00 0.00 0.00 0.00 0.00 0.00
0.00 0.00 0.00 0.00 0.00 0.00 0.00 0.00 0.00 0.00 0.00 0.00 0.00 0.00 0.00 0.00 0.00 0.00 0.00 0.00 0.00 0.00 0.00 0.00 0.00 0.00 0.00 0.00 0.00 0.00 0.00 0.00 0.00 0.00 0.00 0.00 0.00 0.00 0.00 0.00 0.00 0.00 0.00 0.00 0.00 0.00 0.00 0.00 0.00 0.00 0.00 0.00 0.00 0.00
0.00 0.00 0.00 0.00 0.00 0.00 0.00 0.00 0.00 0.00 0.00 0.00 0.00 0.00 0.00 0.00 0.00 0.00 0.00 0.00 0.00 0.00 0.00 0.00 0.00 0.00 0.00 0.00 0.00 0.00 0.00 0.00 0.00 0.00 0.00 0.00 0.00 0.00 0.00 0.00 0.00 0.00 0.00 0.00 0.00 0.00 0.00 0.00 0.00 0.00 0.00 0.00 0.00 0.00
0.00 0.00 0.00 0.00 0.00 0.00 0.00 0.00 0.00 0.00 0.00 0.00 0.00 0.00 0.00 0.00 0.00 0.00 0.00 0.00 0.00 0.00 0.00 0.00 0.00 0.00 0.00 0.00 0.00 0.00 0.00 0.00 0.00 0.00 0.00 0.00 0.00 0.00 0.00 0.00 0.00 0.00 0.00 0.00 0.00 0.00 0.00 0.00 0.00 0.00 0.00 0.00 0.00 0.00
0.00 0.00 0.00 0.00 0.00 0.00 0.00 0.00 0.00 0.00 0.00 0.00 0.00 0.00 0.00 0.00 0.00 0.00 0.00 0.00 0.00 0.00 0.00 0.00 0.00 0.00 0.00 0.00 0.00 0.00 0.00 0.00 0.00 0.00 0.00 0.00 0.00 0.00 0.00 0.00 0.00 0.00 0.00 0.00 0.00 0.00 0.00 0.00 0.00 0.00 0.00 0.00 0.00 0.00
0.00 0.00 0.00 0.00 0.00 0.00 0.00 0.00 0.00 0.00 0.00 0.00 0.00 0.00 0.00 0.00 0.00 0.00 0.00 0.00 0.00 0.00 0.00 0.00 0.00 0.00 0.00 0.00 0.00 0.00 0.00 0.00 0.00 0.00 0.00 0.00 0.00 0.00 0.00 0.00 0.00 0.00 0.00 0.00 0.00 0.00 0.00 0.00 0.00 0.00 0.00 0.00 0.00 0.00
0.00 0.00 0.00 0.00 0.00 0.00 0.00 0.00 0.00 0.00 0.00 0.00 0.00 0.00 0.00 0.00 0.00 0.00 0.00 0.00 0.00 0.00 0.00 0.00 0.00 0.00 0.00 0.00 0.00 0.00 0.00 0.00 0.00 0.00 0.00 0.00 0.00 0.00 0.00 0.00 0.00 0.00 0.00 0.00 0.00 0.00 0.00 0.00 0.00 0.00 0.00 0.00 0.00 0.00
0.00 0.00 0.00 0.00 0.00 0.00 0.00 0.00 0.00 0.00 0.00 0.00 0.00 0.00 0.00 0.00 0.00 0.00 0.00 0.00 0.00 0.00 0.00 0.00 0.00 0.00 0.00 0.00 0.00 0.00 0.00 0.00 0.00 0.00 0.00 0.00 0.00 0.00 0.00 0.00 0.00 0.00 0.00 0.00 0.00 0.00 0.00 0.00 0.00 0.00 0.00 0.00 0.00 0.00
0.00 0.00 0.00 0.00 0.00 0.00 0.00 0.00 0.00 0.00 0.00 0.00 0.00 0.00 0.00 0.00 0.00 0.00 0.00 0.00 0.00 0.00 0.00 0.00 0.00 0.00 0.00 0.00 0.00 0.00 0.00 0.00 0.00 0.00 0.00 0.00 0.00 0.00 0.00 0.00 0.00 0.00 0.00 0.00 0.00 0.00 0.00 0.00 0.00 0.00 0.00 0.00 0.00 0.00
0.00 0.00 0.00 0.00 0.00 0.00 0.00 0.00 0.00 0.00 0.00 0.00 0.00 0.00 0.00 0.00 0.00 0.00 0.00 0.00 0.00 0.00 0.00 0.00 0.00 0.00 0.00 0.00 0.00 0.00 0.00 0.00 0.00 0.00 0.00 0.00 0.00 0.00 0.00 0.00 0.00 0.00 0.00 0.00 0.00 0.00 0.00 0.00 0.00 0.00 0.00 0.00 0.00 0.00
0.00 0.00 0.00 0.00 0.00 0.00 0.00 0.00 0.00 0.00 0.00 0.00 0.00 0.00 0.00 0.00 0.00 0.00 0.00 0.00 0.00 0.00 0.00 0.00 0.00 0.00 0.00 0.00 0.00 0.00 0.00 0.00 0.00 0.00 0.00 0.00 0.00 0.00 0.00 0.00 0.00 0.00 0.00 0.00 0.00 0.00 0.00 0.00 0.00 0.00 0.00 0.00 0.00 0.00
0.00 0.00 0.00 0.00 0.00 0.00 0.00 0.00 0.00 0.00 0.00 0.00 0.00 0.00 0.00 0.00 0.00 0.00 0.00 0.00 0.00 0.00 0.00 0.00 0.00 0.00 0.00 0.00 0.00 0.00 0.00 0.00 0.00 0.00 0.00 0.00 0.00 0.00 0.00 0.00 0.00 0.00 0.00 0.00 0.00 0.00 0.00 0.00 0.00 0.00 0.00 0.00 0.00 0.00
0.00 0.00 0.00 0.00 0.00 0.00 0.00 0.00 0.00 0.00 0.00 0.00 0.00 0.00 0.00 0.00 0.00 0.00 0.00 0.00 0.00 0.00 0.00 0.00 0.00 0.00 0.00 0.00 0.00 0.00 0.00 0.00 0.00 0.00 0.00 0.00 0.00 0.00 0.00 0.00 0.00 0.00 0.00 0.00 0.00 0.00 0.00 0.00 0.00 0.00 0.00 0.00 0.00 0.00
0.00 0.00 0.00 0.00 0.00 0.00 0.00 0.00 0.00 0.00 0.00 0.00 0.00 0.00 0.00 0.00 0.00 0.00 0.00 0.00 0.00 0.00 0.00 0.00 0.00 0.00 0.00 0.00 0.00 0.00 0.00 0.00 0.00 0.00 0.00 0.00 0.00 0.00 0.00 0.00 0.00 0.00 0.00 0.00 0.00 0.00 0.00 0.00 0.00 0.00 0.00 0.00 0.00 0.00
0.00 0.00 0.00 0.00 0.00 0.00 0.00 0.00 0.00 0.00 0.00 0.00 0.00 0.00 0.00 0.00 0.00 0.00 0.00 0.00 0.00 0.00 0.00 0.00 0.00 0.00 0.00 0.00 0.00 0.00 0.00 0.00 0.00 0.00 0.00 0.00 0.00 0.00 0.00 0.00 0.00 0.00 0.00 0.00 0.00 0.00 0.00 0.00 0.00 0.00 0.00 0.00 0.00 0.00
0.00 0.00 0.00 0.00 0.00 0.00 0.00 0.00 0.00 0.00 0.00 0.00 0.00 0.00 0.00 0.00 0.00 0.00 0.00 0.00 0.00 0.00 0.00 0.00 0.00 0.00 0.00 0.00 0.00 0.00 0.00 0.00 0.00 0.00 0.00 0.00 0.00 0.00 0.00 0.00 0.00 0.00 0.00 0.00 0.00 0.00 0.00 0.00 0.00 0.00 0.00 0.00 0.00 0.00
MSLP
1018.50 1019.09 1019.70 1020.36 1020.98 1021.55 1022.04 1022.38 1022.58 1022.69 1022.75 1022.78 1022.67 1022.53 1022.27 1021.97 1021.62 1021.37 1020.58 1020.60 1019.87 1018.48 1018.03 1017.91 1017.64 1017.35 1017.43 1017.10 1017.51 1018.72 1019.57 1019.77 1019.63 1019.30 1019.47 1020.31 1020.91 1022.16 1022.85 1023.92 1023.80 1023.55 1023.34 1023.71 1023.45 1023.43 1023.89 1023.95 1023.78 1023.18 1023.12 1023.09 1023.34 1023.16
1017.93 1018.61 1019.31 1020.00 1020.64 1021.21 1021.71 1022.03 1022.22 1022.37 1022.52 1022.61 1022.51 1022.29 1022.09 1021.90 1021.54 1021.54 1020.56 1020.37 1020.36 1019.46 1018.59 1018.65 1018.56 1018.62 1018.31 1017.88 1017.67 1018.55 1018.61 1018.73 1019.18 1019.34 1019.82 1020.55 1021.17 1022.24 1022.78 1023.39 1024.36 1024.50 1024.63 1024.33 1023.96 1023.52 1023.82 1023.93 1023.49 1023.45 1023.40 1023.34 1023.12 1022.92
1017.49 1018.17 1018.95 1019.66 1020.33 1020.93 1021.40 1021.71 1021.95 1022.18 1022.36 1022.42 1022.31 1022.10 1021.94 1021.77 1021.49 1021.32 1020.53 1020.16 1019.88 1018.70 1018.40 1018.08 1018.44 1018.79 1018.73 1018.69 1018.56 1017.79 1018.92 1019.37 1019.72 1020.19 1019.95 1020.62 1021.23 1022.16 1022.68 1023.50 1024.42 1024.98 1024.85 1024.04 1023.52 1023.91 1023.69 1023.76 1023.62 1023.70 1023.72 1023.35 1023.11 1022.92
1017.11 1017.85 1018.63 1019.37 1020.02 1020.63 1021.10 1021.42 1021.74 1022.00 1022.16 1022.19 1022.16 1021.97 1021.74 1021.52 1021.29 1021.27 1020.45 1019.94 1019.84 1018.57 1017.52 1018.67 1018.81 1018.88 1019.18 1018.83 1018.51 1018.32 1018.58 1019.73 1020.09 1020.11 1020.22 1020.55 1021.42 1022.82 1022.98 1023.27 1023.98 1024.45 1024.50 1023.66 1023.33 1023.62 1024.00 1024.06 1024.36 1024.07 1023.53 1023.32 1023.19 1023.35
1016.86 1017.61 1018.32 1019.05 1019.72 1020.31 1020.76 1021.13 1021.53 1021.76 1021.85 1021.89 1021.86 1021.74 1021.61 1021.38 1021.03 1020.89 1020.40 1019.90 1019.75 1019.40 1017.50 1018.18 1018.74 1019.22 1019.08 1018.76 1018.61 1018.72 1018.95 1019.19 1019.54 1020.01 1020.25 1021.24 1022.30 1022.96 1023.52 1023.71 1023.89 1023.93 1023.55 1023.15 1022.99 1023.74 1023.74 1024.66 1024.74 1024.09 1023.74 1023.75 1023.81 1023.83
1016.73 1017.32 1018.03 1018.75 1019.43 1020.01 1020.45 1020.86 1021.23 1021.52 1021.62 1021.69 1021.66 1021.54 1021.37 1021.13 1020.85 1020.41 1019.63 1018.65 1019.23 1019.37 1017.76 1017.79 1019.35 1019.26 1019.18 1019.00 1018.92 1019.16 1019.48 1019.62 1019.91 1020.11 1021.02 1021.79 1022.50 1022.41 1022.39 1022.81 1023.28 1023.68 1023.89 1023.57 1023.61 1024.12 1024.61 1025.01 1024.78 1024.83 1024.59 1024.61 1024.73 1024.79
1016.31 1017.03 1017.75 1018.48 1019.15 1019.67 1020.11 1020.52 1020.94 1021.20 1021.30 1021.39 1021.41 1021.30 1021.05 1020.82 1020.40 1019.40 1018.71 1018.87 1019.29 1019.21 1017.89 1017.99 1018.44 1019.06 1019.24 1019.08 1019.34 1019.53 1019.81 1020.00 1020.10 1020.69 1021.17 1021.41 1021.95 1022.22 1021.73 1022.02 1022.98 1023.49 1023.78 1024.01 1024.22 1024.33 1024.55 1024.67 1025.10 1025.29 1025.28 1025.39 1025.58 1025.68
1016.00 1016.72 1017.46 1018.19 1018.82 1019.34 1019.78 1020.20 1020.65 1020.88 1021.03 1021.10 1021.10 1020.92 1020.64 1020.26 1020.41 1019.45 1017.71 1017.93 1018.99 1018.17 1017.33 1017.29 1018.24 1018.62 1019.04 1018.72 1019.05 1019.75 1019.53 1019.99 1020.70 1021.02 1021.55 1021.29 1022.10 1021.77 1021.34 1021.88 1022.80 1023.53 1023.86 1024.04 1024.27 1024.48 1024.71 1025.22 1025.47 1025.88 1025.97 1026.03 1026.37 1026.76
1015.71 1016.43 1017.17 1017.86 1018.45 1018.94 1019.46 1019.95 1020.32 1020.57 1020.79 1020.98 1020.84 1020.47 1019.96 1019.74 1019.06 1017.54 1017.64 1018.04 1018.09 1017.86 1016.74 1016.74 1016.85 1017.64 1018.70 1018.88 1019.08 1019.53 1019.57 1019.83 1021.13 1020.78 1021.13 1021.43 1021.21 1021.16 1021.22 1021.82 1022.68 1023.39 1023.57 1024.07 1024.50 1025.12 1025.44 1025.81 1026.17 1026.61 1026.59 1026.72 1026.88 1027.20
1015.42 1016.09 1016.79 1017.47 1018.03 1018.60 1019.15 1019.67 1020.08 1020.34 1020.66 1020.97 1020.95 1019.75 1018.84 1017.48 1017.40 1017.70 1018.02 1017.87 1017.56 1016.81 1016.58 1016.12 1016.60 1017.14 1017.67 1018.04 1018.70 1019.11 1019.54 1019.66 1020.05 1021.08 1021.45 1020.99 1020.91 1021.83 1021.61 1022.25 1022.82 1023.40 1023.81 1024.22 1024.61 1025.16 1025.65 1026.19 1027.05 1027.34 1027.35 1027.58 1027.81 1028.12
1015.07 1015.74 1016.42 1017.03 1017.64 1018.27 1018.90 1019.43 1019.85 1020.40 1020.96 1020.84 1019.26 1018.06 1017.42 1017.30 1017.25 1016.99 1016.72 1016.60 1016.43 1016.11 1015.85 1016.24 1016.12 1016.55 1018.03 1017.41 1017.99 1019.03 1019.01 1019.57 1019.71 1020.66 1020.69 1020.41 1020.56 1021.35 1022.07 1022.58 1023.22 1023.84 1024.21 1024.54 1024.78 1025.29 1025.88 1026.81 1027.45 1027.77 1028.25 1028.54 1028.82 1029.09
1014.63 1015.30 1015.99 1016.62 1017.36 1018.00 1018.55 1019.11 1019.59 1020.27 1020.26 1018.64 1018.31 1017.57 1017.26 1017.07 1016.46 1016.10 1015.60 1015.59 1014.96 1014.18 1015.38 1015.29 1016.00 1016.46 1017.80 1017.87 1017.90 1019.33 1018.88 1019.70 1019.52 1020.55 1020.31 1019.69 1019.63 1020.79 1021.96 1022.84 1023.62 1024.30 1024.72 1025.19 1025.63 1026.13 1026.78 1027.30 1027.87 1028.38 1028.88 1029.29 1029.58 1029.88
1014.09 1014.74 1015.38 1016.09 1016.89 1017.49 1017.92 1018.54 1019.06 1019.07 1019.85 1019.76 1017.86 1016.76 1016.40 1015.79 1015.04 1013.88 1013.50 1013.30 1013.22 1013.63 1014.21 1014.77 1015.67 1016.35 1017.74 1017.66 1018.11 1018.46 1018.72 1019.42 1020.04 1019.90 1018.96 1018.57 1019.50 1020.83 1021.89 1022.91 1023.87 1024.60 1025.28 1025.83 1026.46 1027.04 1027.55 1028.08 1028.68 1029.10 1029.56 1029.97 1030.17 1030.47
1013.50 1014.12 1014.78 1015.57 1016.31 1016.81 1017.29 1017.74 1018.18 1019.35 1019.89 1018.14 1016.33 1015.33 1014.24 1013.12 1011.98 1011.07 1010.74 1011.23 1012.18 1012.39 1013.10 1013.74 1015.04 1015.38 1016.68 1017.22 1017.89 1018.14 1019.29 1019.37 1019.18 1018.48 1017.44 1018.05 1019.23 1020.62 1021.92 1023.05 1023.97 1024.95 1025.71 1026.32 1027.03 1027.62 1028.15 1028.74 1029.35 1029.86 1030.12 1030.38 1030.65 1031.13
1012.92 1013.57 1014.15 1014.73 1015.33 1015.73 1016.38 1017.06 1018.04 1018.88 1018.26 1015.92 1013.69 1011.87 1011.25 1010.50 1010.77 1010.80 1011.16 1011.54 1011.90 1012.22 1012.53 1013.95 1014.72 1014.90 1016.07 1017.12 1017.55 1018.38 1018.80 1017.88 1016.77 1015.39 1015.98 1017.39 1019.16 1020.66 1021.95 1023.06 1024.05 1025.07 1025.95 1026.70 1027.37 1027.94 1028.56 1029.13 1029.62 1030.09 1030.51 1030.86 1031.27 1031.75
1012.23 1012.71 1012.89 1013.50 1013.91 1014.90 1015.81 1017.12 1017.78 1017.83 1016.17 1013.59 1011.78 1010.58 1010.33 1010.19 1010.90 1011.07 1011.04 1011.13 1011.59 1011.97 1012.47 1012.66 1013.55 1014.34 1015.19 1015.71 1016.53 1016.36 1016.19 1014.95 1014.14 1014.63 1015.90 1017.66 1019.38 1020.87 1022.07 1023.21 1024.24 1025.20 1026.07 1026.80 1027.50 1028.13 1028.69 1029.22 1029.62 1030.22 1030.78 1031.30 1031.76 1031.98
1011.37 1011.07 1011.04 1011.53 1012.35 1013.90 1015.14 1015.72 1016.27 1016.18 1014.04 1011.39 1010.47 1010.16 1009.78 1009.62 1010.00 1010.49 1010.67 1010.85 1011.23 1011.36 1011.34 1011.88 1012.47 1013.17 1014.54 1014.56 1014.62 1014.58 1014.00 1013.88 1014.67 1015.48 1016.76 1018.09 1019.40 1020.90 1022.24 1023.36 1024.44 1025.33 1026.12 1026.88 1027.64 1028.30 1028.83 1029.40 1029.88 1030.31 1030.78 1031.64 1031.91 1032.03
1009.88 1009.31 1009.70 1009.87 1011.07 1012.73 1013.43 1013.99 1014.81 1013.28 1011.77 1010.73 1010.38 1010.33 1010.20 1010.17 1010.06 1010.46 1010.49 1010.68 1010.73 1010.97 1011.54 1011.46 1012.01 1012.52 1012.50 1012.42 1012.44 1012.87 1014.10 1014.89 1015.41 1016.23 1017.31 1018.81 1020.26 1021.46 1022.46 1023.47 1024.53 1025.36 1026.17 1027.11 1027.77 1028.44 1028.98 1029.40 1029.68 1030.19 1030.92 1031.55 1031.79 1031.92
1008.14 1007.98 1008.03 1009.00 1009.81 1010.65 1012.32 1013.66 1012.65 1011.20 1010.97 1010.73 1010.77 1010.69 1010.69 1010.78 1010.61 1010.49 1010.49 1011.04 1011.24 1011.84 1011.84 1011.62 1011.40 1011.19 1011.22 1011.60 1012.03 1013.09 1014.10 1014.85 1015.65 1017.05 1018.36 1019.78 1020.81 1021.76 1022.84 1023.86 1024.70 1025.43 1026.30 1027.06 1027.76 1028.26 1028.79 1029.17 1029.59 1030.25 1030.83 1031.15 1031.36 1031.79
1006.40 1007.04 1007.90 1008.70 1009.10 1010.29 1011.02 1010.28 1009.83 1009.76 1010.40 1010.75 1010.79 1011.14 1011.10 1010.70 1010.51 1010.67 1011.18 1011.67 1011.93 1011.92 1011.63 1011.36 1011.18 1011.53 1011.72 1012.24 1012.50 1013.26 1014.09 1014.96 1015.64 1017.10 1018.89 1020.32 1021.31 1022.16 1023.04 1023.83 1024.51 1025.38 1026.22 1027.06 1027.68 1028.31 1028.93 1029.49 1029.98 1030.38 1030.88 1031.24 1031.43 1031.89
1006.54 1007.74 1008.88 1008.91 1009.70 1009.63 1009.01 1008.50 1008.89 1009.55 1010.17 1010.69 1011.13 1010.86 1010.88 1010.81 1010.84 1011.14 1011.65 1012.09 1011.95 1011.65 1011.53 1011.91 1012.24 1012.94 1013.49 1013.38 1013.42 1013.88 1014.72 1015.29 1015.65 1015.75 1016.65 1019.15 1020.96 1021.86 1022.96 1023.75 1024.60 1025.31 1025.95 1026.65 1027.42 1028.15 1028.66 1029.08 1029.83 1030.45 1031.11 1031.45 1031.76 1032.24
1005.92 1007.69 1008.99 1009.94 1009.63 1008.41 1008.27 1008.61 1008.58 1009.37 1009.99 1010.74 1010.76 1010.53 1010.74 1010.97 1011.07 1011.76 1012.24 1011.88 1012.00 1012.27 1012.56 1012.64 1013.15 1013.59 1013.82 1013.97 1014.27 1014.77 1015.39 1015.95 1016.79 1017.88 1019.21 1020.07 1020.44 1021.55 1022.54 1023.48 1024.19 1024.88 1025.59 1026.29 1026.98 1027.86 1028.39 1029.22 1029.86 1030.48 1030.97 1031.76 1032.10 1032.45
1006.45 1007.81 1009.56 1009.77 1009.08 1008.24 1009.29 1008.98 1008.92 1009.58 1010.01 1010.68 1010.47 1010.30 1010.67 1011.08 1011.58 1012.32 1012.06 1012.13 1012.45 1013.14 1013.27 1013.56 1014.00 1014.03 1014.19 1014.67 1015.09 1015.68 1015.90 1016.26 1017.08 1018.17 1019.36 1020.12 1021.08 1022.01 1022.77 1023.50 1024.10 1024.64 1025.35 1026.27 1027.03 1027.90 1028.83 1029.68 1030.44 1030.69 1031.39 1031.89 1032.17 1032.83
1007.25 1009.20 1009.51 1008.37 1007.88 1008.93 1009.15 1009.39 1009.44 1009.79 1010.48 1010.54 1010.44 1010.58 1011.13 1011.27 1011.82 1011.77 1011.70 1012.00 1012.65 1013.20 1013.59 1014.14 1014.25 1014.50 1015.00 1015.42 1015.62 1016.03 1016.38 1016.89 1017.66 1018.88 1019.54 1020.18 1021.05 1022.08 1022.87 1023.50 1024.15 1024.77 1025.39 1026.23 1027.10 1028.04 1029.09 1029.78 1030.62 1031.07 1031.47 1032.07 1032.51 1033.06
1009.08 1008.45 1007.72 1007.58 1007.87 1008.28 1008.96 1009.39 1009.66 1009.69 1010.59 1010.75 1010.93 1011.31 1011.40 1011.36 1011.45 1011.65 1011.41 1011.72 1012.39 1012.84 1013.46 1013.94 1014.13 1014.26 1014.26 1014.89 1015.69 1016.38 1016.85 1017.16 1017.48 1018.39 1019.72 1020.51 1021.34 1022.35 1023.09 1023.82 1024.32 1024.78 1025.63 1026.42 1027.36 1028.45 1029.25 1030.00 1030.56 1031.09 1031.74 1032.23 1032.60 1032.80
1006.86 1007.07 1006.73 1006.98 1007.69 1007.71 1008.60 1009.27 1009.59 1010.14 1010.47 1011.05 1011.33 1011.65 1011.57 1011.45 1011.43 1011.05 1010.75 1010.78 1011.44 1012.10 1012.70 1012.95 1013.14 1013.63 1014.37 1015.01 1015.30 1016.18 1016.73 1017.31 1017.98 1018.85 1019.82 1020.38 1021.01 1021.68 1022.45 1023.13 1023.91 1024.98 1025.63 1026.22 1027.29 1028.45 1029.31 1030.06 1030.64 1031.14 1031.63 1032.13 1032.52 1032.94
1006.06 1006.90 1007.06 1007.24 1007.12 1007.47 1008.70 1009.44 1009.71 1009.82 1010.53 1010.94 1011.10 1011.34 1011.35 1011.44 1010.97 1010.35 1010.47 1010.44 1010.69 1011.27 1012.15 1012.78 1013.10 1013.54 1014.11 1015.02 1015.87 1016.59 1017.15 1017.67 1018.08 1018.77 1019.89 1020.84 1021.47 1021.92 1022.41 1022.72 1023.37 1024.40 1025.39 1025.99 1026.98 1028.00 1029.06 1029.88 1030.51 1031.06 1031.60 1031.98 1032.48 1032.89
1006.56 1006.89 1007.19 1007.88 1007.73 1007.90 1008.45 1009.70 1010.03 1010.28 1010.35 1010.33 1010.44 1010.82 1010.59 1010.57 1010.54 1010.72 1010.91 1011.04 1010.96 1011.49 1012.38 1013.13 1013.58 1013.96 1014.70 1015.42 1016.11 1016.85 1017.66 1018.36 1019.17 1020.27 1021.20 1021.81 1022.07 1022.42 1022.85 1023.50 1024.18 1025.24 1025.84 1026.00 1027.31 1027.99 1028.71 1029.54 1030.24 1030.78 1031.33 1031.83 1032.36 1032.74
1007.12 1007.55 1007.53 1008.39 1008.71 1009.38 1010.32 1010.55 1010.58 1010.74 1010.80 1010.37 1010.44 1010.53 1010.81 1011.01 1011.44 1011.51 1011.82 1011.62 1011.58 1011.98 1012.71 1013.36 1014.09 1014.63 1015.46 1016.29 1016.80 1017.33 1017.91 1018.21 1018.70 1019.66 1020.44 1021.23 1022.16 1022.81 1022.99 1023.60 1024.54 1025.31 1025.95 1027.08 1028.00 1028.00 1028.47 1029.34 1029.96 1030.51 1030.94 1031.50 1031.98 1032.35
1007.92 1007.99 1008.43 1009.37 1009.91 1011.17 1011.73 1011.82 1011.72 1011.76 1011.63 1011.48 1011.39 1011.41 1011.51 1011.76 1012.19 1012.55 1012.56 1012.33 1012.23 1012.50 1012.85 1013.40 1014.17 1014.84 1015.55 1016.06 1016.91 1017.81 1018.18 1018.21 1018.34 1018.66 1019.08 1019.63 1020.73 1021.93 1022.79 1023.36 1024.17 1024.91 1025.63 1026.51 1027.54 1028.67 1029.46 1029.66 1030.50 1030.87 1031.18 1031.39 1031.75 1032.09
1008.22 1008.44 1009.19 1010.21 1011.32 1012.21 1012.32 1012.38 1012.32 1012.25 1012.11 1012.13 1012.14 1012.02 1012.31 1012.35 1012.39 1012.75 1012.78 1012.72 1012.89 1013.36 1013.80 1014.53 1015.12 1015.48 1015.74 1016.07 1016.57 1017.35 1018.24 1018.75 1018.77 1018.91 1019.47 1020.22 1021.13 1021.98 1022.65 1023.31 1023.92 1024.45 1025.41 1026.16 1026.85 1027.72 1028.44 1029.19 1029.63 1029.94 1030.33 1030.67 1030.94 1031.23
1008.90 1009.24 1009.54 1010.59 1012.03 1012.54 1012.51 1012.40 1012.33 1012.41 1012.54 1012.53 1012.82 1012.85 1012.87 1012.84 1012.77 1012.78 1013.06 1013.21 1013.56 1013.96 1014.23 1014.58 1014.98 1015.43 1015.55 1015.67 1016.37 1016.55 1016.59 1017.85 1018.79 1019.07 1019.62 1020.24 1020.90 1021.55 1022.19 1022.90 1024.06 1024.89 1025.49 1026.02 1026.63 1027.21 1027.73 1028.17 1028.63 1028.98 1029.29 1029.62 1029.94 1030.24
1009.74 1009.81 1010.01 1010.76 1011.86 1012.39 1012.51 1012.36 1012.42 1012.66 1012.86 1013.07 1013.42 1013.62 1013.65 1013.62 1013.19 1013.05 1013.31 1013.45 1013.71 1013.90 1014.13 1014.56 1014.86 1015.23 1015.50 1015.75 1016.16 1016.74 1016.97 1017.57 1018.29 1018.95 1019.52 1019.91 1020.43 1021.09 1021.64 1022.58 1023.43 1024.13 1024.86 1025.44 1025.95 1026.37 1026.91 1027.28 1027.69 1028.06 1028.35 1028.61 1028.87 1029.22
Thickness
5309 5312 5314 5317 5320 5324 5331 5342 5357 5372 5388 5402 5417 5431 5446 5460 5475 5488 5505 5513 5530 5550 5558 5563 5570 5576 5579 5588 5581 5576 5570 5571 5572 5571 5569 5558 5555 5540 5530 5511 5516 5520 5523 5509 5515 5511 5501 5512 5513 5518 5520 5523 5517 5518
5306 5308 5309 5312 5315 5319 5325 5335 5350 5366 5381 5396 5411 5425 5441 5455 5471 5483 5501 5511 5519 5537 5552 5555 5561 5565 5573 5582 5583 5576 5580 5581 5578 5573 5568 5560 5554 5545 5541 5535 5523 5520 5514 5514 5516 5519 5518 5518 5521 5523 5523 5520 5521 5521
5301 5303 5305 5307 5310 5315 5321 5329 5343 5359 5374 5390 5405 5421 5437 5452 5467 5480 5497 5509 5519 5542 5551 5560 5562 5563 5567 5570 5575 5584 5575 5572 5570 5567 5570 5562 5557 5552 5545 5537 5523 5514 5517 5525 5529 5523 5525 5525 5526 5523 5520 5521 5522 5522
5296 5298 5299 5301 5305 5311 5316 5324 5336 5352 5369 5386 5401 5417 5434 5450 5466 5477 5494 5506 5516 5539 5557 5550 5554 5558 5560 5567 5573 5578 5577 5569 5567 5570 5566 5565 5557 5544 5546 5542 5533 5528 5525 5532 5533 5530 5525 5524 5517 5518 5522 5522 5520 5517
5290 5292 5295 5297 5301 5307 5313 5320 5331 5347 5366 5383 5398 5415 5431 5447 5464 5476 5489 5503 5513 5531 5555 5553 5552 5553 5559 5566 5571 5573 5573 5574 5574 5569 5567 5556 5546 5542 5537 5536 5530 5534 5534 5537 5535 5530 5529 5516 5513 5519 5520 5516 5513 5509
5285 5289 5291 5293 5298 5304 5310 5317 5329 5345 5363 5380 5397 5414 5430 5447 5462 5474 5496 5508 5513 5522 5549 5551 5544 5550 5556 5562 5566 5566 5567 5567 5568 5567 5557 5552 5546 5550 5550 5543 5539 5535 5531 5534 5532 5526 5518 5512 5515 5512 5510 5507 5503 5500
5282 5285 5287 5290 5296 5302 5308 5316 5327 5345 5363 5380 5396 5412 5431 5448 5462 5484 5509 5508 5512 5520 5544 5546 5548 5549 5553 5559 5560 5561 5562 5562 5565 5559 5556 5556 5552 5552 5557 5550 5540 5535 5531 5528 5525 5523 5519 5518 5510 5507 5504 5500 5495 5492
5279 5281 5284 5288 5295 5301 5308 5316 5329 5346 5364 5381 5397 5415 5433 5448 5459 5480 5502 5512 5513 5530 5545 5548 5545 5551 5553 5559 5560 5557 5562 5562 5556 5554 5551 5557 5548 5553 5555 5551 5542 5533 5530 5528 5525 5522 5519 5513 5508 5501 5498 5495 5488 5479
5276 5279 5282 5288 5295 5302 5308 5316 5332 5350 5367 5382 5396 5415 5434 5450 5467 5493 5501 5508 5515 5530 5545 5551 5555 5554 5554 5555 5557 5557 5561 5559 5549 5556 5555 5553 5558 5558 5556 5549 5542 5534 5533 5527 5523 5515 5511 5506 5501 5495 5493 5489 5484 5478
5273 5277 5282 5289 5296 5301 5307 5319 5336 5353 5367 5378 5397 5427 5445 5469 5479 5487 5496 5507 5521 5535 5544 5555 5558 5559 5562 5562 5558 5560 5558 5560 5560 5554 5549 5557 5560 5546 5553 5548 5543 5537 5533 5528 5521 5514 5510 5504 5489 5486 5486 5481 5475 5468
5272 5277 5283 5291 5296 5301 5310 5324 5341 5350 5361 5381 5418 5441 5460 5466 5478 5492 5492 5508 5523 5536 5547 5549 5560 5560 5554 5565 5563 5558 5563 5560 5563 5558 5560 5563 5561 5553 5548 5545 5539 5534 5531 5526 5523 5517 5510 5498 5487 5483 5475 5469 5463 5456
5273 5280 5287 5292 5296 5303 5315 5330 5339 5351 5371 5400 5417 5442 5454 5466 5478 5490 5508 5518 5536 5555 5545 5557 5557 5564 5554 5560 5564 5553 5564 5556 5566 5552 5559 5567 5571 5560 5550 5542 5536 5531 5526 5520 5515 5508 5500 5494 5485 5476 5468 5461 5454 5447
5277 5284 5290 5295 5300 5310 5325 5335 5348 5366 5372 5389 5424 5442 5454 5466 5478 5507 5500 5536 5547 5554 5557 5560 5561 5561 5555 5563 5561 5563 5564 5561 5555 5559 5572 5580 5570 5560 5552 5543 5535 5529 5521 5514 5506 5498 5490 5483 5475 5467 5459 5452 5446 5442
5282 5288 5294 5299 5307 5322 5333 5346 5359 5363 5374 5406 5431 5445 5472 5488 5515 5536 5557 5568 5565 5569 5568 5573 5562 5572 5565 5565 5561 5565 5554 5558 5559 5565 5578 5580 5572 5562 5552 5542 5534 5524 5516 5508 5498 5490 5482 5473 5464 5457 5452 5447 5444 5438
5286 5291 5299 5309 5322 5336 5346 5356 5362 5372 5391 5426 5460 5487 5502 5519 5527 5545 5550 5555 5562 5568 5573 5563 5565 5573 5566 5558 5562 5555 5550 5567 5584 5601 5597 5587 5573 5561 5551 5541 5533 5522 5512 5502 5493 5485 5476 5467 5459 5453 5447 5445 5441 5436
5293 5301 5316 5326 5339 5346 5353 5357 5367 5381 5408 5445 5474 5498 5508 5529 5527 5538 5553 5560 5565 5568 5571 5576 5573 5573 5569 5573 5567 5572 5582 5596 5611 5609 5598 5583 5570 5558 5548 5539 5530 5519 5509 5500 5490 5481 5472 5463 5457 5451 5447 5443 5438 5436
5302 5320 5334 5344 5355 5358 5362 5372 5380 5394 5429 5469 5487 5500 5523 5540 5544 5549 5558 5563 5568 5572 5580 5581 5581 5586 5572 5578 5584 5594 5603 5610 5600 5596 5588 5578 5568 5556 5546 5536 5525 5516 5507 5498 5486 5477 5468 5460 5455 5452 5449 5441 5439 5438
5321 5337 5346 5361 5368 5372 5384 5394 5396 5421 5452 5475 5496 5505 5516 5528 5543 5551 5559 5565 5572 5578 5576 5587 5583 5585 5593 5602 5606 5610 5595 5592 5593 5588 5582 5570 5559 5550 5542 5532 5522 5514 5505 5493 5483 5473 5464 5460 5459 5457 5451 5445 5442 5442
5341 5356 5373 5383 5395 5403 5396 5396 5419 5452 5466 5483 5490 5501 5513 5524 5538 5551 5560 5562 5566 5566 5573 5583 5592 5603 5609 5609 5608 5600 5594 5592 5588 5579 5570 5559 5552 5546 5536 5527 5519 5511 5501 5491 5481 5473 5466 5464 5463 5459 5455 5452 5451 5447
5367 5381 5390 5402 5410 5409 5411 5433 5450 5473 5478 5483 5494 5500 5514 5532 5544 5551 5552 5554 5561 5568 5578 5588 5599 5601 5603 5600 5602 5598 5594 5590 5587 5577 5564 5554 5547 5539 5532 5525 5519 5510 5500 5489 5481 5469 5465 5462 5460 5459 5458 5455 5454 5450
5378 5385 5394 5403 5409 5420 5440 5460 5469 5476 5479 5484 5488 5506 5519 5532 5540 5547 5549 5548 5562 5574 5584 5583 5585 5580 5578 5587 5593 5592 5587 5586 5585 5588 5581 5561 5547 5540 5531 5525 5517 5508 5500 5491 5481 5472 5466 5469 5464 5460 5457 5457 5454 5451
5389 5391 5392 5396 5411 5438 5455 5462 5479 5480 5484 5486 5499 5517 5528 5534 5542 5543 5539 5558 5564 5568 5570 5575 5574 5574 5577 5581 5582 5582 5580 5579 5575 5566 5554 5548 5549 5540 5533 5525 5518 5510 5502 5493 5485 5476 5475 5470 5466 5464 5462 5456 5455 5453
5399 5399 5393 5400 5422 5446 5447 5460 5479 5481 5491 5490 5509 5525 5530 5533 5536 5529 5546 5552 5557 5552 5558 5563 5564 5571 5574 5574 5574 5573 5574 5573 5569 5563 5553 5549 5541 5535 5529 5523 5517 5510 5502 5493 5485 5478 5473 5466 5463 5465 5461 5459 5458 5452
5402 5396 5401 5424 5448 5441 5455 5459 5473 5481 5486 5500 5514 5520 5525 5533 5530 5544 5555 5558 5553 5552 5556 5555 5562 5565 5566 5567 5568 5568 5568 5566 5561 5552 5549 5545 5539 5532 5526 5521 5514 5508 5501 5493 5485 5478 5470 5468 5463 5463 5462 5455 5451 5449
5392 5405 5427 5437 5448 5458 5458 5464 5475 5487 5485 5497 5509 5511 5520 5530 5540 5544 5559 5559 5553 5558 5558 5559 5565 5568 5573 5572 5567 5563 5561 5561 5560 5555 5544 5539 5534 5527 5521 5515 5511 5506 5498 5490 5481 5473 5469 5466 5465 5464 5458 5452 5455 5458
5420 5419 5444 5451 5454 5472 5475 5474 5480 5483 5494 5495 5510 5513 5522 5534 5538 5550 5564 5567 5566 5566 5564 5568 5573 5574 5571 5568 5567 5560 5559 5557 5554 5547 5541 5538 5534 5529 5522 5518 5511 5502 5497 5492 5482 5473 5470 5466 5461 5464 5461 5457 5454 5453
5441 5438 5448 5456 5472 5481 5476 5482 5490 5499 5495 5500 5514 5512 5524 5534 5544 5565 5558 5568 5573 5572 5568 5568 5571 5571 5569 5564 5560 5557 5554 5551 5550 5546 5537 5530 5526 5524 5522 5519 5514 5507 5498 5493 5486 5477 5472 5468 5464 5463 5459 5457 5454 5451
5437 5450 5457 5457 5468 5481 5487 5486 5491 5499 5510 5518 5526 5522 5538 5549 5565 5555 5557 5559 5565 5567 5565 5564 5565 5566 5562 5559 5555 5550 5546 5542 5537 5529 5523 5519 5518 5517 5515 5511 5507 5498 5493 5488 5483 5478 5473 5468 5464 5461 5457 5454 5451 5448
5438 5446 5457 5453 5459 5461 5463 5479 5490 5495 5501 5522 5530 5537 5539 5539 5538 5544 5544 5553 5562 5564 5561 5561 5559 5558 5553 5547 5546 5543 5540 5540 5538 5531 5526 5520 5512 5509 5510 5507 5499 5495 5489 5483 5477 5475 5473 5469 5465 5461 5459 5455 5451 5447
5436 5445 5450 5448 5458 5458 5458 5463 5475 5481 5489 5502 5511 5521 5528 5530 5529 5529 5535 5547 5557 5560 5559 5557 5553 5551 5546 5546 5540 5535 5535 5537 5539 5537 5534 5530 5523 5514 5507 5504 5498 5494 5489 5482 5477 5470 5464 5463 5459 5456 5453 5451 5448 5445
5438 5446 5446 5448 5449 5448 5454 5460 5467 5475 5484 5493 5496 5513 5519 5522 5526 5527 5534 5542 5544 5540 5543 5541 5539 5540 5541 5543 5536 5532 5529 5526 5529 5532 5529 5523 5515 5508 5503 5498 5495 5491 5486 5481 5478 5472 5467 5461 5459 5456 5454 5452 5450 5447
5434 5441 5454 5456 5450 5447 5453 5464 5471 5480 5483 5494 5497 5502 5508 5518 5529 5532 5528 5532 5534 5537 5539 5540 5538 5537 5538 5541 5536 5538 5539 5532 5526 5526 5523 5519 5514 5507 5502 5496 5490 5485 5480 5476 5472 5469 5465 5462 5459 5457 5456 5453 5451 5448
5431 5440 5448 5451 5451 5453 5454 5467 5473 5480 5483 5487 5486 5486 5493 5502 5525 5525 5522 5526 5530 5533 5535 5534 5533 5533 5533 5534 5534 5531 5531 5529 5524 5522 5519 5515 5511 5505 5500 5494 5489 5484 5479 5475 5471 5469 5465 5462 5460 5457 5456 5453 5451 5449